Shelton, WA

9:56 PM PDT on October 16, 2017 (GMT -0700)
Sanderson

Weather History for KSHN - June, 2013

Change the Weather History Date:

Saturday, June 15, 2013

  Actual Average Record
Temperature  
Mean Temperature 58 °F -  
Max Temperature 78 °F 70 °F 90 °F (1961)
Min Temperature 39 °F 50 °F 39 °F (2012)
Degree Days  
Heating Degree Days 6    
Growing Degree Days 8 (Base 50)    
Moisture  
Dew Point 46 °F    
Average Humidity 79    
Maximum Humidity 100    
Minimum Humidity 37    
Precipitation  
Precipitation 0.00 in - - ()
Sea Level Pressure  
Sea Level Pressure 29.97 in    
Wind  
Wind Speed 2 mph (South)    
Max Wind Speed 18 mph    
Max Gust Speed 24 mph    
Visibility 7 miles    
Events Fog    
Averages and records for this station are not official NWS values.
T = Trace of Precipitation, MM = Missing Value Source: NWS Daily Summary

Daily Weather History Graph

Daily Weather History Graph

Search for Another Location

Airport or City:

Trip Planner

Search our weather history database for the weather conditions in past years. The results will help you decide how hot, cold, wet, or windy it might be!

Date:

Astronomy

Jun. 15, 2013 Rise Set
Actual Time 5:15 AM PDT 9:10 PM PDT
Civil Twilight 4:35 AM PDT 9:50 PM PDT
Nautical Twilight 3:40 AM PDT 10:45 PM PDT
Astronomical Twilight 2:16 AM PDT 12:10 AM PDT
Moon 12:21 PM PDT (6/15) 12:25 AM PDT (6/15)
Length of Visible Light 17h 14m
Length of Day
15h 54m
Waxing Crescent, 40% of the Moon is Illuminated
Jun 15
Waxing Crescent
Jun 16
First Quarter
Jun 23
Full
Jun 29
Last Quarter
Jul 8
New

Hourly Weather History & Observations

Time (PDT) Temp. Dew Point Humidity Pressure Visibility Wind Dir Wind Speed Gust Speed Precip Events Conditions
12:53 AM 45.0 °F 43.0 °F 93% 30.03 in 10.0 mi Calm Calm - N/A   Clear
1:53 AM 44.1 °F 43.0 °F 96% 30.02 in 9.0 mi Calm Calm - N/A   Clear
2:01 AM 42.8 °F 42.8 °F 100% 30.01 in 1.8 mi Calm Calm - N/A   Clear
2:13 AM 44.6 °F 42.8 °F 93% 30.00 in 4.0 mi Calm Calm - N/A   Clear
2:53 AM 42.1 °F 39.9 °F 92% 30.00 in 10.0 mi Calm Calm - N/A   Clear
3:14 AM 42.8 °F 41.0 °F 93% 29.99 in 5.0 mi Calm Calm - N/A   Scattered Clouds
3:22 AM 42.8 °F 41.0 °F 93% 29.99 in 1.8 mi Calm Calm - N/A   Mostly Cloudy
3:30 AM 42.8 °F 42.8 °F 100% 29.99 in 0.2 mi Calm Calm - N/A Fog Fog
3:40 AM 44.6 °F 42.8 °F 93% 29.99 in 2.5 mi Calm Calm - N/A   Mostly Cloudy
3:53 AM 43.0 °F 42.1 °F 97% 29.99 in 3.0 mi Calm Calm - N/A   Scattered Clouds
4:42 AM 41.0 °F 39.2 °F 93% 29.98 in 10.0 mi Calm Calm - N/A   Mostly Cloudy
4:53 AM 41.0 °F 39.9 °F 96% 29.99 in 10.0 mi Calm Calm - N/A   Mostly Cloudy
5:04 AM 42.8 °F 42.8 °F 100% 29.98 in 10.0 mi Calm Calm - N/A   Scattered Clouds
5:30 AM 39.2 °F 37.4 °F 93% 29.97 in 1.2 mi Calm Calm - N/A   Scattered Clouds
5:37 AM 39.2 °F 39.2 °F 100% 29.97 in 0.2 mi Calm Calm - N/A Fog Fog
5:53 AM 41.0 °F 41.0 °F 100% 29.98 in 0.2 mi Calm Calm - N/A Fog Fog
6:19 AM 42.8 °F 42.8 °F 100% 29.97 in 2.0 mi Calm Calm - N/A   Overcast
6:23 AM 42.8 °F 42.8 °F 100% 29.97 in 0.8 mi Calm Calm - N/A   Mist
6:53 AM 46.0 °F 46.0 °F 100% 29.98 in 0.8 mi Calm Calm - N/A   Mist
6:57 AM 46.4 °F 46.4 °F 100% 29.97 in 2.5 mi Calm Calm - N/A   Mostly Cloudy
7:01 AM 46.4 °F 46.4 °F 100% 29.97 in 9.0 mi Calm Calm - N/A   Scattered Clouds
7:53 AM 52.0 °F 50.0 °F 93% 29.97 in 10.0 mi East 3.5 mph - N/A   Clear
8:53 AM 57.9 °F 50.0 °F 75% 29.97 in 10.0 mi ENE 4.6 mph - N/A   Clear
9:53 AM 62.1 °F 52.0 °F 70% 29.96 in 10.0 mi ESE 4.6 mph - N/A   Clear
10:53 AM 66.9 °F 51.1 °F 57% 29.94 in 10.0 mi NE 5.8 mph - N/A   Clear
11:53 AM 69.1 °F 53.1 °F 57% 29.94 in 10.0 mi SE 6.9 mph - N/A   Clear
12:53 PM 71.1 °F 53.1 °F 53% 29.94 in 10.0 mi Variable 6.9 mph - N/A   Clear
1:53 PM 75.0 °F 52.0 °F 44% 29.92 in 10.0 mi Calm Calm - N/A   Clear
2:53 PM 75.0 °F 50.0 °F 41% 29.91 in 10.0 mi Calm Calm - N/A   Clear
3:53 PM 78.1 °F 50.0 °F 37% 29.90 in 10.0 mi SSW 4.6 mph - N/A   Clear
4:53 PM 75.0 °F 52.0 °F 44% 29.91 in 10.0 mi South 5.8 mph - N/A   Clear
5:53 PM 73.9 °F 53.1 °F 48% 29.91 in 10.0 mi SE 6.9 mph - N/A   Clear
6:53 PM 75.0 °F 51.1 °F 43% 29.91 in 10.0 mi WSW 6.9 mph - N/A   Clear
7:53 PM 72.0 °F 51.1 °F 48% 29.93 in 10.0 mi WSW 13.8 mph - N/A   Clear
8:53 PM 64.9 °F 48.9 °F 56% 29.95 in 10.0 mi WSW 16.1 mph - N/A   Clear
9:53 PM 61.0 °F 50.0 °F 67% 29.97 in 10.0 mi SW 18.4 mph - N/A   Clear
10:53 PM 57.9 °F 48.9 °F 72% 29.99 in 10.0 mi WSW 18.4 mph 24.2 mph N/A   Clear
11:53 PM 55.9 °F 51.1 °F 84% 30.00 in 10.0 mi WSW 9.2 mph - N/A   Clear